This is the latest recevied weather packets stored in our database for station/object S50ME-11. If no packets are shown the sender has not sent any weather packets the latest 10 day(s).
| Time | Temp. | Humidity | Pressure | Rain* | Wind** | Luminosity | Snow |
|---|---|---|---|---|---|---|---|
| 1777514440 | 5.56° C | 45% | 1029.8 hPa | - | - | - | - |
| 1777514437 | 5.56° C | 45% | 1029.8 hPa | - | - | - | - |
| 1777513648 | 6.11° C | 45% | 1029.9 hPa | - | - | - | - |
| 1777513540 | 6.11° C | 45% | 1029.9 hPa | - | - | - | - |
| 1777513537 | 6.11° C | 45% | 1029.9 hPa | - | - | - | - |
| 1777512639 | 6.67° C | 44% | 1029 hPa | - | - | - | - |
| 1777512636 | 6.67° C | 44% | 1029 hPa | - | - | - | - |
| 1777511740 | 6.67° C | 45% | 1029.6 hPa | - | - | - | - |
| 1777511736 | 6.67° C | 45% | 1029.6 hPa | - | - | - | - |
| 1777510839 | 6.67° C | 45% | 1029.5 hPa | - | - | - | - |
| 1777510836 | 6.67° C | 45% | 1029.5 hPa | - | - | - | - |
| 1777510286 | 7.22° C | 45% | 1030 hPa | - | - | - | - |
| 1777509939 | 7.22° C | 45% | 1030 hPa | - | - | - | - |
| 1777509935 | 7.22° C | 45% | 1030 hPa | - | - | - | - |
| 1777509040 | 7.22° C | 45% | 1029.9 hPa | - | - | - | - |
| 1777509036 | 7.22° C | 45% | 1029.9 hPa | - | - | - | - |
| 1777508140 | 6.67° C | 46% | 1029.5 hPa | - | - | - | - |
| 1777508134 | 6.67° C | 46% | 1029.5 hPa | - | - | - | - |
| 1777507244 | 6.67° C | 46% | 1029.1 hPa | - | - | - | - |
| 1777507241 | 6.67° C | 46% | 1029.1 hPa | - | - | - | - |
| 1777506381 | 6.11° C | 46% | 1029.5 hPa | - | - | - | - |
| 1777506344 | 6.11° C | 46% | 1029.5 hPa | - | - | - | - |
| 1777506341 | 6.11° C | 46% | 1029.5 hPa | - | - | - | - |
| 1777505479 | 5.56° C | 47% | 1029.1 hPa | - | - | - | - |
| 1777505444 | 5.56° C | 47% | 1029.1 hPa | - | - | - | - |
* Rain since midnight (hover to see other rain measurements)
** Current wind speed in m/s (hover to see current wind gust speed)